{"data":{"norad_id":66124,"epoch":"2026-09-19T12:52:27.175296Z","epoch_age_seconds":183621,"freshness":"STALE","line1":"1 66124U 25237L   26262.53642564  .00015250  00000+0  46163-3 0  9996","line2":"2 66124  53.1573 216.0835 0001441  57.1882 302.9260 15.34395650 52337","mean_motion":15.3439565,"eccentricity":0.0001441,"inclination_deg":53.1573,"raan_deg":216.0835,"arg_perigee_deg":57.1882,"mean_anomaly_deg":302.926,"bstar":0.00046163,"rev_number":5233,"period_min":93.848024139015,"perigee_km":461.73040241267,"apogee_km":463.70193629608,"semimajor_km":6840.8531693544,"source":"CELESTRAK","updated_at":"2026-09-21T09:00:35.808396Z"}}